Regional Weather Roundup
Issued by NWS Wakefield, VA

Home | Current Version | Previous Version | Graphics & Text | Print | Product List | Glossary Off
Versions: 1 2 3 4 5 6 7 8 9 10 11 12 13 14 15 16 17 18 19 20 21 22 23 24 25 26 27 28 29 30 31 32 33 34 35 36 37 38 39 40 41 42 43 44 45 46 47 48 49 50

000
ASUS41 KAKQ 230110
RWRAKQ

REGIONAL WEATHER ROUNDUP
NATIONAL WEATHER SERVICE WAKEFIELD VA
900 PM EDT MON SEP 22 2014

Note: "fair" indicates few or no clouds below 12,000 feet with no
significant weather and/or obstructions to visibility. * = Denotes
station may not report precipitation (e.g., rain,snow,etc.),
thunder or fog.

VAZ042-051-052>054-056-230200-
NORTHERN VIRGINIA

CITY           SKY/WX    TMP DP  RH WIND       PRES   REMARKS
WASH NATIONAL  PTCLDY    65  42  43 N12       30.18R
DULLES         MOCLDY    61  43  51 N7        30.18R
FORT BELVOIR   PTCLDY    60  47  61 N3        30.18R
QUANTICO       PTCLDY    60  51  72 NW7       30.18R
FREDERICKSBRG* PTCLDY    65  46  50 N7        30.15R
STAFFORD*      PTCLDY    56  49  78 CALM      30.21R
WARRENTON      PTCLDY    57  52  85 N3        30.18R
CULPEPER*      MOCLDY    57  46  67 N6        30.19R
MANASSAS*      MOCLDY    63  46  55 N7        30.18R
LEESBURG*      MOCLDY    59  48  67 CALM      30.19R
WINCHESTER     PTCLDY    55  41  58 NW6       30.20R
FRONT ROYAL*   MOCLDY    55  43  62 CALM      30.19R
LURAY*         MOCLDY    61  45  55 N5        30.20R
$$

VAZ048-049-060>072-079>083-230200-
CENTRAL AND SOUTH CENTRAL VIRGINIA...AND NORTH CENTRAL NORTH CAROLINA

CITY           SKY/WX    TMP DP  RH WIND       PRES   REMARKS
RICHMOND       MOCLDY    66  47  50 N9        30.14R
CHESTERFIELD*  PTCLDY    63  43  48 CALM      30.15R
PETERSBURG*    PTCLDY    56  54  92 CALM      30.14R
HANOVER        PTCLDY    62  49  62 CALM      30.16R
TAPPAHANNOCK*  PTCLDY    59  47  63 CALM      30.15R
CHARLOTTSVILLE MOCLDY    60  48  64 N3        30.16R
ORANGE*        MOCLDY    61  43  51 NW7       30.18R
LOUISA*        PTCLDY    63  46  55 N3        30.15R
FARMVILLE*     PTCLDY    63  52  67 CALM      30.13R
CREWE*         PTCLDY    60  54  82 N3        30.13R
FORT PICKETT*  PTCLDY    61  56  82 CALM      30.13R
LUNENBURG*     PTCLDY    63  59  88 CALM      30.13R
SOUTH HILL*    PTCLDY    61  61 100 CALM      30.17S
LAWRENCEVILLE* PTCLDY    60  56  89 CALM      30.11S
ROANOKE RAPIDS PTCLDY    61  59  94 CALM      30.12R
RALEIGH        CLOUDY    65  58  78 CALM      30.13R
$$

VAZ088>098-230200-
SOUTHEAST VIRGINIA

CITY           SKY/WX    TMP DP  RH WIND       PRES   REMARKS
NORFOLK        PTCLDY    68  55  63 NE8       30.11R
VIRGINIA BEACH PTCLDY    67  54  63 N7        30.10R
NORFOLK NAVAL  PTCLDY    71  55  56 N13       30.13R
WEST POINT*    PTCLDY    62  53  72 CALM      30.15R
NEWPORT NEWS   CLEAR     66  55  67 N6        30.12R
LANGLEY AFB    CLEAR     68  54  62 N10       30.11R
FORT EUSTIS    PTCLDY    67  50  53 NE5       30.11R
WILLIAMSBURG*  PTCLDY    64  57  77 CALM      30.13R
HR EXEC AP*    PTCLDY    57  54  88 CALM      30.13R
FRANKLIN*      PTCLDY    61  55  82 CALM      30.12R
WAKEFIELD      PTCLDY    60  57  89 CALM      30.12R
$$

VAZ020-022-025-037-045-230200-
WEST CENTRAL AND SOUTHWEST VIRGINIA

CITY           SKY/WX    TMP DP  RH WIND       PRES   REMARKS
STAUNTON*      MOCLDY    58  44  59 N5        30.21R
HOT SPRINGS VA MOCLDY    45  32  59 NW9       30.26R
LYNCHBURG      MOCLDY    62  53  72 NW3       30.17R
DANVILLE       MOCLDY    60  56  86 CALM      30.14R
SOUTH BOSTON*  NOT AVBL
MARTINSVILLE   PTCLDY    55  55 100 CALM      30.19R
ROANOKE        MOCLDY    59  48  67 NW9       30.20R
BLACKSBURG     MOCLDY    54  52  94 NW5       30.24R
DUBLIN*        PTCLDY    57  49  74 CALM      30.24R
MARION*        CLEAR     52  48  87 CALM      30.26R
HILLSVILLE*    MOCLDY    53  47  80 N3        30.23R
RICHLANDS*     CLEAR     55  49  79 NE6       30.24R
WISE*          CLEAR     52  45  76 N3        30.25R
ABINGDON*      CLEAR     58  49  72 CALM      30.22R
$$

MDZ021>025-VAZ099-100-230200-
SOUTHERN MARYLAND AND THE DELMARVA PENINSULA

CITY           SKY/WX    TMP DP  RH WIND       PRES   REMARKS
PATUXENT RIVER PTCLDY    65  46  50 N12       30.14R
BAY BRIDGE APT   N/A     63  45  51 NW13G18   30.15R
LEONARDTOWN    CLEAR     61  45  55 N3        30.16R
DOVER          CLEAR     60  46  60 NW9       30.11R
GEORGETOWN     CLEAR     63  50  62 VRB3      30.13R
EASTON         CLEAR     63  50  63 CALM      30.18R
CAMBRIDGE      CLEAR     64  46  52 NW8       30.13R
SALISBURY      CLEAR     63  50  62 NW3       30.13R
OCEAN CITY     CLEAR     61  50  67 NW5       30.12R
WALLOPS ISLAND CLEAR     64  53  67 N5        30.13R
ACCOMACK*      CLEAR     55  52  88 N5        30.12R
$$

NCZ012>017-030>032-230200-
EASTERN NORTH CAROLINA

CITY           SKY/WX    TMP DP  RH WIND       PRES   REMARKS
ELIZABETH CITY PTCLDY    67  58  72 NE6       30.10R
AHOSKIE*       PTCLDY    62  58  86 CALM      30.12R
EDENTON*       PTCLDY    66  60  83 NE3       30.12R
CURRITUCK*     PTCLDY    65  58  80 CALM      30.11R
KILL DEVIL HLS PTCLDY    69  58  67 CALM      30.09R
MANTEO         PTCLDY    69  58  69 NE8       30.10R
CAPE HATTERAS  CLEAR     68  60  75 VRB5      30.09R
TARBORO*       CLOUDY    64  60  87 CALM      30.13R
GOLDSBORO      CLOUDY    71  61  71 N1        30.09R
WASHINGTON     CLOUDY    65  60  81 CALM      30.11R
GREENVILLE     CLOUDY    66  59  77 N3        30.12R
NEW BERN       MOCLDY    69  64  84 CALM      30.10R
WILMINGTON     LGT RAIN  70  67  90 SW8       30.10R
$$

VAZ048-230200-
ELSEWHERE

CITY           SKY/WX    TMP DP  RH WIND       PRES   REMARKS
HARRISBURG PA  MOCLDY    61  41  47 N10G18    30.16R
BALTIMORE      MOCLDY    59  44  57 NW6       30.16R
ANNAPOLIS      PTCLDY    64  47  53 MISG      30.16R
ANDREWS AFB    PTCLDY    61  43  51 N10       30.17R
WILMINGTON DE  MOCLDY    57  46  66 NW10      30.15R
PHILADELPHIA   MOCLDY    63  42  46 NW15      30.13R
WILDWOOD NJ*   CLEAR     64  45  48 NW7       30.12R
ATLANTIC CITY  CLEAR     56  50  80 NW8       30.11R
HENDERSON NC   CLOUDY    62  58  89 CALM      30.13R
GREENSBORO     MOCLDY    65  53  65 N3        30.15R
ROCKY MOUNT    CLOUDY    65  59  81 CALM      30.12R
FAYETTEVILLE   LGT RAIN  69  59  70 N5        30.11R
CHARLOTTE      CLOUDY    70  52  52 VRB5      30.13R
$$

VAZ100-230200-
MARINE

STATION/POSITION TIME  TEMP    WIND        PRES    WAVE   SWELL
                       AIR SEA DIR/SP/G            HT/PER HT/PER
                 (UTC) (F)     (DEG/KT/KT) (MB)    (FT/S) (FT/S)
44066 TX TWR #4  0100   68 71  300/ 21/ 25 1016.7R   6/ 9   3/ 9
CAPE MAY NJ      0100   67 75  340/ 13/ 19 1019.1R
LEWES DE         0100   68 72  330/ 15/ 17 1019.4R
15NM E FENWICK I 0100   70 71              1018.7R   3/ 9
OCEAN-CITY-INLET 0100   66 72  330/ 11/ 13 1019.2R
WACHAPREAGUE VA  0100   63 75  320/  1/  2 1019.8R
THOMAS POINT MD  0100   63 73  320/ 10/ 11 1022.1R
GOOSES REEF MD   0100   67     350/ 17/ 19 1020.9R
COVE POINT MD    0100   67     350/ 16/ 19 1020.3R
SOLOMONS ISLAND  0100      75                N/A
BISHOPS HEAD MD  0100   64 71  330/  6/  7 1019.9R
PINEY POINT MD   0100           20/ 10/ 12   N/A
POTOMAC MD       0100   68      10/ 10/ 12 1019.6R
CAMBRIDGE MD     0100   68 73  330/ 12/ 15 1020.0R
LEWISETTA VA     0100   68 74   10/  8/ 12 1020.1R
RAPPAHANNOCK LGT 0100          350/ 15/ 17 1020.1R
STINGRAY PT      0100   71     360/ 12/ 16   N/A
YORK RVR RNG VA  0100   71      20/ 12/ 13 1019.5R
YORKTOWN VA      0100   70 76   20/  7/  9 1019.6R
JAMESTOWN VA     0100   67      50/  4/  4   N/A
DOMINION TERM VA 0100   71      50/  2/  3 1019.7R
KIPTOPEKE VA     0100      78   50/  5/  6   N/A
CHES BAY BRIDGE  0100   71 75   30/ 10/ 12 1019.1R
CAPE HENRY VA    0100   71      20/ 12/ 13 1018.2R
CHESAPEAKE LGHT  0000   71     360/ 11/ 12 1019.5R
WILLOUBY STN VA  0100   71      10/  9/ 12 1018.4R
S CRANEY ISL VA  0100           30/  9/ 11 1019.3R
1ST LANDING BUOY 0100   72      20/ 12/ 14 1019.0R
64NM E OF VA BCH 0100   71 76  360/ 12/ 16 1018.5R   3/ 8   3/ 8
DUCK PIER NC     0100   72 75   30/ 11/ 12 1018.4R
OREGON INLET NC  0100   71 76   30/  8/ 11 1019.0R
DIAMOND SHLS NC  0100   74     360/ 16/ 17 1018.1R   4/ 7   2/10
CAPE LOOKOUT NC  0000   75      30/ 10/ 11 1017.7R
$$



USA.gov is the U.S. government's official web portal to all federal, state and local government web resources and services.